Regional Weather Roundup
Issued by NWS Little Rock, AR

Home | Current Version | Previous Version | Text Only | Print | Product List | Glossary On
Versions: 1 2 3 4 5 6 7 8 9 10 11 12 13 14 15 16 17 18 19 20 21 22 23 24 25 26 27 28 29 30 31 32 33 34 35 36 37 38 39 40 41 42 43 44 45 46 47 48 49 50
000
ASUS44 KLZK 090505
RWRLZK

WEATHER ROUNDUP FOR ARKANSAS
NATIONAL WEATHER SERVICE LITTLE ROCK AR
1100 PM CST THU DEC 08 2016

NOTE: "FAIR" INDICATES FEW OR NO CLOUDS BELOW 12,000 FEET WITH NO
SIGNIFICANT WEATHER AND/OR OBSTRUCTIONS TO VISIBILITY.

ARZ001-003-010-029-090600-
NORTHWEST ARKANSAS

CITY           SKY/WX    TMP DP  RH WIND       PRES   REMARKS
FAYETTEVILLE   CLEAR     20  12  71 NE3       30.63R
FORT SMITH     CLEAR     27  12  53 NW5       30.67S WCI  22
HARRISON       CLEAR     19  13  77 W5        30.61R WCI  12
BENTONVILLE    CLEAR     21   9  58 CALM      30.63R
ROGERS         CLEAR     19  13  77 CALM      30.63R
SILOAM SPGS    CLEAR     19  10  68 N5        30.63R WCI  13
HIGHFILL       CLEAR     18  11  74 N5        30.62S WCI  11
$$

ARZ004-005-016-090600-
NORTH CENTRAL ARKANSAS

CITY           SKY/WX    TMP DP  RH WIND       PRES   REMARKS
BATESVILLE     CLEAR     27  12  54 NW5       30.64R WCI  21
FLIPPIN        CLEAR     25  12  58 NW12      30.60S WCI  14
MTN HOME       CLEAR     23  14  68 N6        30.61R WCI  16
$$

ARZ040-041-090600-
WEST CENTRAL ARKANSAS

CITY           SKY/WX    TMP DP  RH WIND       PRES   REMARKS
MENA           CLEAR     30  14  51 N9        30.61S WCI  22
$$

ARZ009-017-025-026-028-090600-
NORTHEAST ARKANSAS

CITY           SKY/WX    TMP DP  RH WIND       PRES   REMARKS
CORNING        FAIR      27  18  69 N7        30.63R WCI  19
JONESBORO      CLEAR     29  16  58 NW7       30.61R WCI  22
NEWPORT        CLEAR     26  17  68 NW8         N/A  WCI  18
WALNUT RIDGE   CLEAR     27  14  59 NW12      30.62R WCI  16
BLYTHEVILLE    CLEAR     27  20  75 N8        30.60R WCI  19
$$

ARZ022-023-033-042-044-090600-
CENTRAL ARKANSAS

CITY           SKY/WX    TMP DP  RH WIND       PRES   REMARKS
LITTLE ROCK    CLEAR     29  13  51 N12       30.64R WCI  19
JACKSONVILLE   CLEAR     29  13  49 NW6       30.63R WCI  23
SEARCY         CLEAR     28  15  58 N6        30.65R WCI  22
HOT SPRINGS    CLEAR     31  11  43 VRB3      30.62R
RUSSELLVILLE   CLEAR     28  11  48 N3        30.64R
CLINTON        FAIR      28  14  54 VRB5      30.64R WCI  23
$$

ARZ036-090600-
EAST ARKANSAS

CITY           SKY/WX    TMP DP  RH WIND       PRES   REMARKS
WEST MEMPHIS   CLEAR     30  18  60 N7        30.59R WCI  23
$$

ARZ050-053-066-070-073-090600-
SOUTHWEST ARKANSAS

CITY           SKY/WX    TMP DP  RH WIND       PRES   REMARKS
ARKADELPHIA    FAIR      31  19  61 N5        30.64R WCI  26
CAMDEN         CLEAR     27  23  86 CALM      30.63R
TEXARKANA      CLEAR     29  18  63 NW6       30.64R WCI  23
EL DORADO      CLEAR     30  23  75 CALM      30.62R
DE QUEEN       CLEAR     25  21  85 CALM      30.64R
$$

ARZ056-057-069-090600-
SOUTHEAST ARKANSAS

CITY           SKY/WX    TMP DP  RH WIND       PRES   REMARKS
PINE BLUFF     CLEAR     29  18  63 N7        30.62R WCI  22
STUTTGART      CLEAR     28  16  59 N9        30.62S WCI  20
MONTICELLO     CLEAR     30  18  60 CALM      30.60S

$$





USA.gov is the U.S. government's official web portal to all federal, state and local government web resources and services.